Theta_e
352 338 332 338 333 331 332 339 342 343 344 345 345 345 346 346 346 345 344 343 343 342 341 340 342 344 343 342 338 334 336 339 338 337 337 336 337 337 336 336 337 337 337 337 337 337 336 336 337 338 339 340 341 340 339 338 338 335 331 328 327 324 320 323 325 324 324 320 315 312 311 311 311 313 319 324 328 330 331 331 330 326 323 327 328
351 338 336 339 333 331 333 339 341 344 344 344 345 344 345 345 344 343 342 342 342 341 339 340 343 343 343 342 338 335 337 338 338 338 337 338 338 338 337 337 337 336 336 337 337 337 336 335 335 336 337 339 340 339 338 336 336 334 328 325 322 318 322 328 330 331 333 331 327 322 314 310 312 311 314 316 319 320 320 321 321 324 328 331 331
349 342 341 339 333 331 333 338 341 344 343 343 343 344 344 343 342 342 342 341 341 339 338 341 343 343 343 342 338 335 337 339 339 338 338 338 339 338 339 338 338 336 336 337 337 336 336 336 336 336 337 338 339 337 335 332 332 330 325 321 318 320 327 332 333 334 335 336 336 334 324 312 312 313 313 314 315 316 316 316 318 326 331 333 333
349 346 343 339 334 331 334 339 342 343 342 342 342 343 343 341 342 343 343 341 340 337 338 342 343 343 342 342 338 338 339 341 340 338 338 338 339 339 339 339 337 336 336 337 337 336 336 336 336 336 337 337 337 334 329 326 324 322 319 317 321 328 332 333 332 333 334 336 337 337 332 318 311 313 314 315 316 316 317 317 320 329 332 333 335
348 347 343 339 335 332 334 337 340 343 341 341 342 343 342 342 342 343 343 342 339 336 339 342 343 343 342 342 340 341 341 340 340 340 339 338 339 339 340 339 336 335 336 336 336 336 336 337 337 337 337 337 335 330 326 324 322 319 317 320 328 332 332 332 333 333 333 335 336 337 335 324 313 314 315 316 317 319 320 320 321 329 334 333 334
348 346 344 341 336 333 335 336 340 342 340 341 342 342 342 343 343 342 343 342 340 338 341 341 343 343 342 342 341 341 340 340 341 340 340 338 337 338 340 338 335 334 335 336 335 336 337 337 337 336 337 336 331 327 327 328 325 321 320 325 330 332 332 333 333 333 334 334 335 336 335 327 317 316 316 317 320 322 324 325 322 324 330 332 334
347 345 345 345 338 333 334 337 342 342 340 340 342 343 343 344 343 342 342 342 342 341 342 342 342 342 342 342 341 341 341 341 341 341 339 334 334 338 339 338 336 334 335 335 334 336 337 337 336 336 336 332 328 328 330 329 327 326 324 327 330 331 332 332 332 332 332 331 333 335 333 328 322 319 318 319 322 325 327 329 327 322 324 327 331
346 346 346 346 340 334 334 338 343 343 341 341 343 343 344 345 343 341 341 342 341 342 342 342 342 342 342 341 341 341 341 341 342 340 337 330 328 333 336 337 336 334 335 334 335 336 336 337 336 336 335 331 330 331 331 330 329 328 327 328 330 331 332 332 333 333 332 330 329 332 332 331 328 323 322 323 324 326 328 329 329 325 324 325 326
346 346 346 346 340 333 334 339 342 342 342 342 343 344 345 344 342 341 341 341 341 342 342 342 342 342 342 341 342 341 341 341 341 339 336 331 327 326 329 334 335 334 336 335 336 337 337 337 337 337 334 332 332 332 331 330 329 329 328 328 330 331 333 334 334 335 335 330 327 330 332 333 330 328 327 326 326 326 326 327 327 326 326 326 327
346 346 346 345 339 333 335 338 340 342 342 342 344 344 344 343 341 341 341 341 342 342 342 342 342 342 341 341 341 341 341 341 340 339 336 330 329 328 328 335 336 335 337 336 337 337 338 338 338 337 333 332 332 332 331 330 330 329 329 329 331 333 334 334 334 335 335 330 328 331 333 333 330 330 330 329 329 327 326 326 326 327 327 327 327
347 347 347 345 338 333 334 336 338 341 341 342 344 344 343 342 341 341 341 342 342 342 343 342 342 341 341 340 341 341 341 339 338 337 333 327 329 330 329 335 336 335 337 337 338 338 339 338 337 334 331 332 332 332 331 330 330 330 329 330 332 334 334 334 335 334 334 332 330 333 334 333 330 330 331 331 330 329 329 328 328 328 327 327 327
347 347 346 344 338 334 334 334 336 340 342 343 344 344 343 341 341 341 341 342 342 342 342 342 342 341 340 341 341 341 340 338 336 334 332 327 327 329 328 334 336 336 337 337 339 338 338 336 334 332 332 332 332 332 331 331 330 329 329 330 333 334 334 334 334 333 334 332 330 332 334 332 329 330 331 331 331 331 331 330 330 329 328 328 328
348 347 345 342 338 335 333 332 336 341 343 343 343 343 342 341 341 341 342 342 342 342 342 342 341 341 341 341 341 340 339 337 335 332 329 326 327 330 328 332 336 336 338 338 338 338 336 334 332 332 332 332 332 332 332 331 330 329 329 329 332 333 334 334 334 333 333 330 328 332 334 332 330 330 331 331 331 331 331 331 330 330 329 329 329
349 347 345 342 338 335 333 333 338 342 342 343 343 342 341 340 341 342 342 342 342 342 342 342 341 341 341 341 340 338 337 336 334 332 327 325 329 333 330 331 335 336 337 338 338 336 334 332 332 332 332 332 332 332 332 332 331 330 329 329 331 333 334 334 335 334 331 329 328 332 334 333 331 331 331 331 331 330 330 330 331 332 333 333 333
348 346 345 343 340 335 332 335 340 341 342 342 341 341 340 341 342 342 342 342 342 342 342 342 341 340 340 340 338 334 331 330 328 326 322 323 330 335 332 331 334 336 337 337 337 335 333 332 332 332 332 332 332 332 333 332 331 330 329 329 330 333 333 332 334 333 329 330 332 333 334 332 332 332 332 332 332 331 331 331 332 336 337 337 337
346 345 344 343 341 337 336 340 342 341 341 341 340 341 341 341 342 342 342 342 342 342 342 341 340 340 339 337 331 324 320 320 319 317 317 320 328 334 333 331 331 334 336 336 336 334 331 331 332 332 332 332 332 332 332 331 330 329 328 328 328 328 329 330 334 334 330 331 335 336 334 332 332 332 332 332 332 332 332 331 334 338 339 338 337
344 344 343 342 341 339 340 343 342 341 341 341 341 342 342 341 341 341 341 342 342 342 341 340 340 338 333 327 321 318 317 316 314 313 314 318 325 330 332 331 330 331 334 335 334 332 330 331 332 332 332 332 332 332 332 332 330 330 329 329 326 324 326 330 334 334 332 333 337 336 333 332 332 332 332 332 332 332 332 332 333 338 338 336 335
343 343 342 341 340 340 342 343 342 342 341 341 341 342 342 341 341 341 341 342 342 341 340 339 337 332 326 321 318 317 314 312 310 310 312 317 323 326 329 330 329 328 329 332 331 329 329 331 331 332 332 332 332 332 332 332 332 331 331 329 327 326 330 333 335 335 336 338 338 336 333 333 332 332 332 332 333 332 332 332 333 336 337 336 336
343 342 342 341 340 340 342 343 344 343 342 341 342 342 341 341 340 340 341 341 341 340 339 335 331 327 324 321 318 316 312 308 308 309 312 318 323 325 327 329 329 327 325 327 328 328 329 330 331 331 332 332 332 332 332 332 331 331 331 329 328 328 333 336 336 338 340 340 337 335 334 333 332 332 332 333 333 333 333 333 334 336 337 336 336
342 342 341 341 339 340 342 343 345 345 343 342 342 342 340 340 340 340 340 340 339 338 334 329 327 327 326 320 318 325 322 312 309 309 312 318 321 323 325 328 329 328 325 323 324 326 327 329 330 330 331 332 332 332 331 331 330 331 330 329 328 328 335 337 336 338 340 339 336 335 334 333 333 333 334 334 334 334 334 334 335 336 336 336 335
342 342 341 340 339 340 341 341 344 345 344 344 342 342 340 340 340 340 340 339 337 334 330 328 329 329 325 318 320 333 334 326 323 319 315 316 319 322 323 326 327 327 327 324 322 322 324 326 328 329 330 330 331 331 330 329 328 327 327 327 327 330 336 337 336 339 340 339 336 335 334 334 334 335 335 335 335 335 334 335 336 336 336 335 335
342 343 342 341 339 340 340 340 343 345 344 345 343 343 341 340 340 340 339 338 335 331 329 329 328 326 325 325 329 337 338 337 336 333 328 318 314 318 320 322 324 325 326 325 324 322 320 320 321 323 324 326 327 327 326 326 326 325 325 325 328 334 337 336 338 340 340 339 337 337 336 335 336 336 336 336 337 336 336 336 337 337 336 335 335
344 344 342 341 340 341 341 339 342 344 344 345 345 343 340 341 341 339 338 335 332 330 330 331 329 327 331 335 336 337 339 340 339 339 336 326 319 317 316 318 319 321 323 325 325 324 322 319 317 317 318 320 322 322 323 328 330 328 326 328 333 336 335 336 339 339 339 338 337 338 336 335 336 337 337 337 337 336 336 336 336 336 336 335 335
344 344 342 342 340 342 341 339 341 344 343 344 345 343 340 342 342 341 338 332 331 333 335 336 335 333 337 339 338 337 339 340 340 341 337 331 329 325 321 320 316 316 317 320 321 322 323 321 319 319 320 321 322 323 326 331 333 332 331 332 335 336 335 338 340 339 338 336 336 336 336 335 336 336 336 336 336 336 335 336 335 335 334 334 334
344 344 343 342 341 342 341 339 341 343 343 344 345 343 341 343 343 342 338 331 334 339 338 338 337 337 339 339 338 339 339 340 340 341 338 335 334 331 331 329 324 321 320 321 322 322 322 321 321 323 326 327 327 329 331 332 333 334 334 333 335 335 336 339 339 337 335 334 334 334 334 334 335 336 336 336 336 335 335 335 335 334 334 334 334
344 344 343 342 342 342 342 341 341 342 343 344 345 344 343 343 342 342 339 335 338 340 338 338 338 338 339 339 339 340 340 340 341 340 340 340 338 337 337 337 336 335 334 334 334 332 327 326 328 329 330 332 333 333 333 333 334 335 334 334 335 335 337 338 338 335 331 330 330 331 333 333 334 335 335 335 335 334 334 334 334 333 333 333 333
344 343 343 343 343 341 342 342 340 341 342 342 343 344 343 343 342 342 340 339 339 338 338 338 339 340 340 340 340 341 340 341 341 340 340 340 340 340 340 340 340 339 339 339 339 338 334 333 335 334 333 334 334 333 332 334 336 336 335 334 335 335 337 338 337 334 330 328 328 328 330 331 332 333 333 333 333 333 333 333 333 332 332 331 331
343 343 343 342 342 342 342 342 341 341 342 341 342 343 343 342 342 341 340 339 338 337 338 338 339 340 341 341 340 341 341 341 341 341 340 340 340 340 340 340 340 339 339 339 338 338 337 335 335 335 335 334 334 334 334 334 336 337 335 334 335 335 337 337 336 333 330 328 327 327 327 328 328 328 328 328 328 328 329 329 330 330 330 330 329
343 343 342 342 342 341 341 341 340 341 342 341 341 342 342 342 342 340 340 339 338 338 339 338 339 340 342 341 341 341 341 340 340 340 340 340 339 339 341 340 339 339 339 339 338 338 337 338 338 337 335 334 335 337 335 334 335 335 335 334 334 334 335 335 335 334 330 327 327 326 326 326 325 324 322 321 321 321 320 321 322 322 324 326 326
344 343 342 342 342 341 340 340 340 341 342 341 341 341 341 342 341 340 339 338 338 339 338 338 339 341 342 342 343 343 341 339 340 340 340 340 340 339 341 341 340 340 340 339 339 338 338 338 339 337 335 334 336 337 335 334 335 334 334 334 333 333 333 333 334 334 330 328 327 326 326 325 324 322 320 318 317 317 316 315 315 314 315 317 318
344 343 342 342 341 340 340 340 340 341 342 341 341 341 341 342 341 340 339 339 339 339 338 339 340 341 343 343 343 343 341 340 339 339 339 340 340 339 340 341 340 340 340 339 339 339 338 338 338 336 335 335 335 336 334 334 334 333 332 332 332 332 331 331 331 332 331 329 327 326 325 324 322 321 317 314 311 310 309 308 307 307 307 307 310
344 343 342 341 339 340 340 339 340 340 341 341 341 341 341 342 341 340 340 339 339 339 339 339 340 342 344 344 344 343 343 342 340 340 340 340 339 340 341 341 340 340 340 340 340 339 338 338 338 336 336 336 335 335 334 333 332 330 330 330 329 330 329 329 329 329 328 328 327 326 324 322 320 318 315 312 307 302 301 301 300 299 300 300 303
344 343 342 340 339 340 339 339 339 339 341 341 340 342 342 342 341 340 340 338 339 340 339 338 339 341 344 344 343 344 343 342 342 342 341 341 341 341 341 341 340 340 340 340 339 339 338 337 336 335 335 335 335 334 333 332 331 329 328 328 327 327 327 327 327 326 325 325 324 323 322 319 317 316 313 311 307 301 297 298 299 297 297 296 300
344 342 341 341 341 341 339 339 339 339 340 340 340 342 342 341 340 339 339 339 339 340 339 339 339 341 343 343 343 342 340 339 341 341 342 341 341 341 340 340 340 340 339 339 338 337 337 335 335 335 334 334 334 333 332 330 329 328 327 326 325 324 324 324 323 323 322 322 321 320 318 316 314 312 311 310 308 304 300 300 302 301 300 296 299
343 342 342 341 341 341 340 340 340 340 341 340 340 341 341 340 340 340 339 339 339 340 340 340 340 342 343 343 343 341 337 338 340 341 341 340 340 341 340 340 340 339 338 337 336 335 335 335 335 335 334 333 332 332 331 329 327 326 325 324 323 323 322 321 321 320 319 318 317 316 313 311 309 308 308 308 308 308 304 303 305 306 305 300 299
344 342 342 341 341 341 340 340 340 342 341 341 341 341 340 340 340 339 339 339 340 340 340 340 341 341 341 342 342 339 338 339 340 340 340 339 340 340 339 339 338 338 337 335 335 334 334 334 334 334 335 333 331 331 329 327 325 324 323 322 322 321 320 319 318 317 316 315 313 311 310 309 310 308 307 307 307 309 308 307 307 307 308 304 301
343 342 342 341 341 341 340 340 341 342 342 341 341 341 340 340 339 338 339 340 340 340 340 339 340 340 341 341 339 339 340 339 339 340 339 338 338 338 337 337 336 336 335 335 334 333 334 334 333 333 334 333 331 329 327 325 323 321 321 320 319 319 318 317 316 315 314 313 312 310 308 308 309 308 307 306 305 306 307 308 308 307 308 306 304
343 342 342 341 342 340 340 341 341 342 342 342 342 341 341 340 338 338 339 340 340 340 339 339 339 340 341 340 338 339 340 338 338 339 338 337 337 337 336 336 336 335 334 333 332 331 332 333 332 330 332 333 331 329 326 323 321 319 318 317 317 316 315 315 314 313 312 312 312 311 310 308 307 307 306 305 304 305 306 307 308 307 308 307 306
344 343 342 342 342 340 340 342 342 342 342 342 341 341 341 339 338 339 340 340 340 340 337 337 340 341 340 339 338 339 338 337 337 337 337 336 337 336 336 336 335 335 335 335 333 332 330 330 329 327 331 332 329 327 324 321 319 317 316 315 315 315 314 314 313 312 312 311 311 311 311 310 309 308 306 304 304 306 306 306 307 306 307 307 307
343 343 342 342 342 341 340 342 342 342 342 342 341 341 340 339 339 340 339 339 339 338 337 338 340 340 340 338 338 338 338 338 337 336 337 336 336 336 336 335 335 335 335 335 334 332 329 328 328 327 330 330 325 324 322 319 317 315 314 313 313 313 312 312 312 311 311 310 310 310 310 310 310 310 309 308 306 306 307 306 305 305 305 306 307
344 343 343 342 342 341 340 342 342 342 342 342 341 341 340 340 339 339 337 337 337 337 338 339 339 340 339 338 338 337 337 337 337 336 336 336 336 336 335 334 334 333 334 333 332 330 326 325 327 328 330 329 324 322 321 318 316 315 315 313 311 311 311 311 311 310 310 309 309 309 309 310 310 309 309 310 308 307 307 305 304 303 302 304 306
345 344 343 343 342 341 340 342 342 342 342 342 341 341 340 340 339 337 336 336 337 337 338 339 339 339 338 338 338 337 337 337 337 336 336 336 336 335 334 333 332 332 332 331 329 327 324 323 325 327 330 329 325 322 320 318 319 318 317 315 313 311 310 310 310 310 309 308 309 309 308 308 309 309 308 308 308 307 306 305 304 304 303 303 305
344 344 343 343 342 341 341 342 342 342 342 341 341 341 340 339 338 337 336 337 337 338 339 339 339 339 338 338 337 337 337 336 336 336 335 335 334 333 332 331 330 330 330 329 328 327 326 325 324 325 328 329 327 323 320 321 325 324 320 320 318 315 313 311 309 308 308 308 308 309 309 309 309 308 307 307 306 306 306 306 306 306 306 305 305
344 344 344 343 342 342 341 342 342 342 341 340 341 341 339 338 338 337 337 338 337 337 338 339 339 338 337 337 336 336 336 335 335 334 334 333 332 331 330 330 329 329 329 328 328 326 325 325 324 323 323 325 327 326 324 325 328 327 325 326 322 319 320 317 312 309 308 308 308 307 307 309 308 307 306 305 305 305 304 306 306 306 306 305 305
344 344 344 343 343 342 342 342 342 342 342 340 341 340 339 338 338 338 338 337 337 337 337 338 338 336 336 336 335 335 334 333 333 332 331 331 330 329 329 328 327 327 327 327 326 324 322 323 324 323 321 322 324 324 325 325 325 322 322 326 325 325 324 317 313 312 310 309 309 307 306 308 308 307 306 304 304 304 303 305 306 305 305 305 305
344 344 345 344 343 342 342 342 342 342 342 341 340 339 338 337 338 338 337 337 337 337 337 337 336 336 335 335 334 333 332 332 331 330 329 329 328 327 327 326 325 325 325 324 323 321 321 320 321 321 318 318 318 319 320 319 319 317 315 319 322 325 322 316 316 316 310 307 307 307 306 306 306 306 306 305 305 304 302 304 306 305 305 304 304
344 344 344 345 344 343 343 342 342 341 341 340 339 339 338 337 338 338 337 337 337 337 337 336 336 335 334 333 333 332 331 330 329 329 329 327 327 326 324 323 323 323 322 322 321 321 321 321 321 319 316 315 314 314 314 314 314 313 311 313 315 317 318 317 318 318 314 311 308 307 305 305 305 304 303 304 305 305 304 305 305 305 305 304 304
345 343 343 345 344 344 343 342 342 341 340 339 339 338 338 338 338 338 337 337 337 337 336 336 335 334 333 332 331 330 328 328 327 327 326 325 324 323 320 319 319 320 320 320 320 319 319 321 321 321 319 316 314 312 312 311 311 310 310 311 310 311 313 314 315 315 316 317 314 310 308 308 308 306 305 304 305 305 306 306 306 305 304 303 303
344 343 343 344 343 343 343 342 341 340 339 339 338 338 338 338 337 337 337 337 337 337 336 335 334 333 332 330 329 328 326 326 325 324 323 322 321 319 317 318 318 319 319 317 318 317 317 318 319 319 318 317 315 314 314 313 312 312 313 312 310 310 311 311 312 312 314 317 316 313 311 311 311 310 308 305 305 306 307 306 305 304 304 302 302
344 343 343 343 343 343 342 341 340 339 339 339 338 338 338 338 337 337 337 337 336 335 334 333 332 331 330 329 327 326 325 325 324 323 322 320 319 318 318 318 318 318 317 315 315 315 315 315 316 316 316 315 315 316 316 315 314 314 314 313 312 312 312 313 312 312 312 314 315 313 312 313 315 313 310 306 305 307 306 305 304 303 303 302 301
343 342 342 342 342 343 341 340 339 338 338 338 337 338 338 337 337 336 336 336 335 334 333 333 331 330 329 328 327 326 325 324 323 321 320 318 318 318 318 317 316 315 314 313 313 312 312 312 313 313 313 313 313 314 313 313 312 312 312 312 312 312 312 313 312 311 312 313 315 314 311 310 314 313 309 306 305 305 304 303 302 302 302 301 301
Wind_Speed
19 22 25 22 22 20 17 17 17 17 16 14 13 13 13 12 12 12 11 11 10 10 10 12 13 12 12 12 12 12 12 12 12 12 13 13 13 13 14 13 13 13 13 13 13 13 13 12 12 12 12 12 12 11 11 10 10 11 11 11 12 15 17 21 22 23 23 23 23 22 19 18 19 18 17 17 17 16 15 15 13 10 15 19 17
23 24 26 24 23 21 18 18 18 17 16 15 13 13 13 13 12 12 11 11 11 10 11 13 12 11 11 11 11 11 11 12 11 12 13 13 13 12 13 13 13 12 12 12 12 12 12 12 11 12 11 11 11 10 9 9 8 9 10 11 13 16 18 20 21 21 21 21 21 22 19 16 17 17 16 15 14 14 13 13 13 13 16 18 18
25 25 26 25 23 22 20 19 19 17 16 16 14 14 13 13 13 12 11 10 10 11 12 12 11 11 11 11 10 11 11 11 11 12 13 12 12 12 12 12 11 11 12 12 12 12 12 11 11 12 11 11 10 9 9 9 8 9 9 11 14 16 18 19 19 19 18 18 18 20 20 16 14 15 15 14 14 14 15 15 15 15 15 17 18
25 25 26 25 23 22 20 20 19 18 17 16 15 14 13 13 13 12 11 10 10 11 13 12 10 10 10 10 11 11 11 11 11 12 12 12 11 11 11 10 10 11 12 12 12 12 12 12 12 12 10 10 9 10 10 11 11 10 11 13 17 19 20 19 19 17 16 15 14 16 16 15 12 13 13 14 14 16 17 17 17 16 15 16 16
25 25 27 26 24 22 20 20 19 19 17 16 16 14 14 13 13 12 11 10 11 12 12 11 10 9 10 10 10 11 11 11 11 11 11 11 11 10 10 10 11 12 13 12 12 12 12 12 13 12 11 10 10 12 13 13 13 12 14 16 19 20 20 19 17 16 14 12 11 13 11 11 12 11 12 13 15 16 17 17 17 15 15 15 14
26 23 26 25 24 22 21 21 20 19 18 17 16 15 15 13 13 12 12 11 12 12 11 10 10 9 9 9 10 11 10 11 11 11 10 10 10 10 10 10 12 13 13 12 12 12 12 13 12 12 11 11 12 13 14 13 13 14 16 17 18 18 18 17 16 14 12 10 8 10 10 8 11 10 11 13 14 15 15 16 16 15 13 13 13
24 23 23 23 24 23 21 21 19 18 18 18 16 16 15 14 13 12 12 11 12 11 10 10 10 9 9 9 9 10 10 9 10 10 9 8 9 10 10 11 12 12 13 13 12 12 12 13 12 12 11 11 13 13 13 13 13 13 14 15 16 16 17 16 15 14 12 11 8 8 10 8 10 10 10 11 12 12 13 14 14 14 13 11 11
22 22 21 21 23 23 22 21 19 18 18 17 16 16 15 14 13 13 13 12 12 11 10 10 10 9 8 8 9 9 9 9 9 8 7 7 7 8 9 10 10 11 12 12 12 12 12 12 11 11 10 12 13 13 13 12 12 12 13 14 15 15 15 14 13 12 12 13 9 7 9 7 8 10 10 11 11 11 11 12 12 13 13 11 11
21 21 21 21 23 23 22 21 20 18 18 18 17 16 14 14 13 13 13 12 12 11 10 10 9 9 8 8 8 8 8 8 7 6 6 6 6 6 8 9 10 11 11 12 12 12 12 11 10 10 10 12 13 13 13 12 12 12 12 12 13 13 12 11 10 9 10 12 9 7 9 9 9 10 10 11 11 11 11 11 12 11 11 11 12
22 22 21 20 23 24 21 21 20 18 18 18 17 16 14 14 13 13 14 12 12 11 10 10 10 9 8 8 8 8 7 7 6 5 5 5 6 7 8 10 10 11 11 11 11 11 11 11 10 10 11 12 12 12 12 11 11 11 11 11 11 11 10 9 8 9 9 10 9 7 8 8 9 10 9 10 10 10 10 10 10 9 10 11 12
22 22 20 20 24 23 21 21 20 19 19 18 17 15 14 14 14 14 14 13 12 11 10 10 10 9 8 7 7 7 7 6 5 4 5 5 6 7 9 11 10 10 11 10 10 10 10 10 10 10 12 12 12 12 11 11 11 10 10 9 9 8 7 6 6 7 6 6 6 7 8 7 8 9 8 9 9 9 9 9 9 9 10 11 11
21 22 21 21 23 22 21 21 20 20 19 18 17 15 15 15 15 14 14 12 12 11 10 10 10 9 8 7 7 6 6 5 4 3 4 4 5 7 9 12 11 11 11 10 10 9 9 9 9 10 11 11 11 11 11 11 10 9 8 8 7 6 6 5 6 7 5 4 4 7 8 6 8 8 6 7 7 7 8 8 8 9 9 10 10
22 23 21 21 23 22 20 21 22 21 19 18 16 16 15 15 15 14 13 13 12 11 10 10 10 9 8 7 6 6 5 4 2 2 3 4 5 6 9 12 12 11 10 10 9 8 9 9 8 9 10 11 10 10 10 9 9 8 8 7 6 5 4 3 4 4 3 3 4 7 7 5 8 6 5 5 5 6 6 7 7 7 8 9 10
25 24 21 22 23 21 20 23 23 21 19 17 16 16 16 15 15 14 13 13 12 12 11 10 10 9 8 6 5 4 3 2 1 1 2 4 6 6 7 11 12 11 10 9 9 8 10 9 7 8 9 10 9 9 8 8 8 7 7 5 4 3 4 4 4 3 2 4 6 8 7 6 7 5 5 5 5 6 6 7 7 7 8 9 9
24 23 21 21 21 21 22 24 23 20 19 17 17 16 16 16 14 14 13 13 12 12 12 11 10 8 7 5 3 2 3 2 1 1 1 4 6 5 6 8 9 10 9 9 8 9 10 9 8 8 7 8 8 7 6 6 6 6 6 4 3 3 4 6 8 7 5 9 11 9 8 8 7 6 6 6 6 7 7 8 8 7 8 8 8
22 22 21 20 20 22 22 22 22 20 18 17 17 17 16 15 14 14 13 13 12 12 12 10 9 7 5 4 3 2 2 3 2 2 3 5 6 5 5 6 8 9 8 8 8 9 10 8 8 7 6 6 6 6 5 5 5 5 5 5 4 3 4 6 11 12 8 10 12 10 8 8 8 8 7 7 7 7 8 8 8 7 8 9 9
22 22 22 21 21 21 20 20 21 19 18 18 17 17 16 15 14 14 13 13 12 12 11 10 8 6 4 3 3 2 2 3 3 5 5 7 7 6 5 5 7 8 8 8 8 8 8 7 7 6 5 5 4 4 4 3 3 4 5 6 5 5 4 6 13 13 8 9 10 8 8 9 9 8 9 9 8 7 7 7 7 7 9 10 12
20 21 23 23 21 21 20 19 20 19 18 18 17 16 16 15 15 14 14 14 13 12 10 8 7 5 4 4 3 2 2 3 4 6 7 8 8 7 6 5 6 7 8 8 8 7 6 6 6 5 4 4 3 3 3 2 2 3 4 5 6 5 5 9 12 10 9 10 7 7 8 9 9 9 10 10 9 8 7 7 7 8 10 11 13
20 21 22 22 21 21 21 18 18 18 19 19 17 16 16 15 15 15 15 14 13 11 9 8 6 6 5 4 5 5 5 4 5 7 8 9 9 7 6 5 5 6 7 8 8 7 6 6 5 5 4 3 3 2 1 1 1 2 2 3 5 4 6 12 11 10 12 9 6 8 9 9 9 9 10 10 10 9 8 8 8 9 11 12 13
20 21 22 22 21 21 21 18 18 17 18 19 18 17 16 16 16 15 15 14 13 11 9 8 7 6 6 6 8 9 8 7 7 6 7 9 9 8 7 6 5 5 6 6 6 7 6 6 6 5 4 4 3 2 2 2 1 2 3 3 4 5 9 11 9 11 11 8 8 9 9 8 8 10 10 11 11 10 9 9 9 10 11 11 12
19 20 21 21 21 22 20 19 20 18 17 18 18 17 16 17 16 15 14 14 12 10 9 8 7 6 7 8 7 7 7 8 7 5 5 6 7 8 7 6 6 5 5 5 4 5 6 6 6 6 5 5 4 4 4 4 4 4 3 4 5 8 9 7 7 11 9 7 9 10 8 8 9 11 11 11 11 10 10 10 10 10 10 11 11
19 20 19 19 22 24 20 19 20 19 19 19 17 17 18 17 16 16 15 13 12 10 9 8 8 9 9 8 7 5 5 6 5 3 3 4 5 6 7 6 6 5 5 5 4 4 4 5 6 6 6 6 6 6 6 5 4 2 2 4 5 6 5 3 8 9 7 7 9 10 8 8 10 11 11 11 11 11 11 10 10 10 10 11 12
18 21 19 18 22 24 21 20 20 19 20 19 17 18 19 17 16 15 15 14 12 10 9 9 9 11 10 8 7 5 7 7 5 5 3 4 5 5 7 6 6 6 6 5 4 4 4 4 3 4 4 6 7 8 6 6 5 2 1 3 3 2 1 4 7 6 5 7 8 8 8 9 11 11 12 12 11 11 11 10 10 10 11 12 12
16 22 19 19 22 22 20 20 20 20 20 20 18 19 19 17 16 14 15 15 13 11 10 11 11 10 9 7 6 6 8 9 7 7 5 4 5 6 7 7 7 7 7 6 5 5 5 4 3 3 3 5 7 6 5 7 7 3 2 2 1 2 3 6 6 4 5 8 9 7 7 9 10 11 12 12 12 12 11 11 11 12 13 13 12
17 21 19 19 21 20 20 19 20 21 20 21 19 19 20 19 18 15 16 15 14 14 11 12 12 10 9 9 9 9 9 9 9 8 7 6 6 6 6 7 8 7 6 6 5 4 4 4 3 4 3 4 6 7 7 6 5 2 1 0 1 4 5 8 7 6 9 10 10 8 8 8 8 9 10 10 11 11 12 13 13 13 13 14 13
18 20 20 20 19 19 20 19 19 20 19 21 20 20 21 21 20 18 17 16 15 15 13 13 13 12 12 11 10 10 9 9 10 10 9 7 7 6 6 6 6 7 6 5 5 5 5 5 5 5 3 4 7 6 5 3 4 4 4 2 1 5 7 8 8 9 13 13 12 10 9 8 6 7 7 8 8 10 12 12 13 14 14 14 14
17 19 21 20 19 18 19 20 19 19 19 19 20 20 20 20 21 19 17 17 16 15 14 14 13 13 12 10 11 10 9 9 9 9 8 7 8 7 6 7 7 9 8 5 7 6 6 6 5 4 3 3 4 2 4 3 4 3 4 4 2 5 9 11 9 9 12 13 14 12 10 9 7 7 6 6 6 7 8 9 10 12 13 13 13
18 20 22 21 20 19 19 20 18 19 20 18 19 19 19 19 19 19 16 15 16 15 14 13 13 13 12 10 11 12 10 9 8 8 6 5 7 5 5 7 6 9 7 4 6 6 5 4 3 3 2 3 2 2 2 2 4 4 5 4 5 6 10 11 10 9 10 13 15 14 12 11 11 10 9 8 8 7 7 7 6 7 9 10 11
21 22 22 21 22 20 20 20 18 19 20 18 18 18 18 18 18 18 16 14 15 15 14 13 12 11 11 10 11 11 10 8 7 6 5 5 6 6 5 5 4 6 5 3 4 5 3 2 1 0 1 3 4 2 2 3 5 4 4 5 5 7 7 9 11 9 10 13 14 13 12 12 13 13 12 12 12 11 11 11 10 8 8 8 10
23 24 22 21 22 21 20 20 18 18 18 17 18 18 18 18 17 17 16 16 14 14 14 12 11 10 11 11 10 9 7 7 6 5 4 5 6 6 5 5 5 5 4 2 3 4 3 4 2 2 2 3 5 4 2 3 4 4 5 7 8 7 6 8 10 8 7 12 12 12 12 13 14 14 14 14 13 12 13 13 13 12 11 10 10
23 24 21 22 23 22 21 20 18 19 18 18 18 18 18 17 17 16 16 16 14 14 13 11 11 10 10 10 9 6 5 6 7 7 6 6 7 8 7 7 7 6 5 3 3 3 3 4 3 3 3 3 5 6 4 5 5 6 7 8 8 8 8 9 10 7 6 8 9 11 12 13 13 14 15 15 14 13 13 13 13 13 12 12 12
23 24 21 23 24 22 21 20 19 19 19 18 18 18 18 17 17 16 15 15 14 14 12 11 11 9 9 9 7 5 4 5 6 7 7 7 8 8 9 9 9 6 6 6 4 3 4 4 3 4 4 4 4 4 5 6 8 10 10 10 9 9 9 8 10 10 9 8 8 9 11 12 12 13 14 16 16 14 13 13 14 14 14 14 13
22 24 24 25 25 22 21 20 19 20 19 18 18 18 18 17 16 15 13 14 14 13 11 11 10 10 9 8 7 7 5 5 6 6 5 6 6 7 8 9 9 8 7 7 5 4 5 4 4 4 4 3 4 4 6 8 9 10 11 10 10 11 10 9 8 9 9 9 9 9 10 11 12 13 14 16 16 16 15 14 16 17 17 16 15
21 24 27 27 26 23 21 20 20 20 19 17 17 17 17 16 15 14 13 14 13 11 11 10 9 9 8 7 7 7 8 7 7 6 5 6 6 6 8 8 8 8 7 7 6 5 6 4 3 4 4 4 4 4 9 13 11 10 11 10 10 11 11 10 9 7 7 6 6 6 7 8 10 12 13 15 16 16 15 15 17 19 20 19 16
23 25 28 27 25 24 22 20 19 21 20 17 17 16 16 15 14 13 13 13 12 11 11 10 9 8 7 8 7 7 9 8 8 6 5 6 6 6 7 8 7 7 7 7 6 6 6 4 3 4 3 4 6 7 12 14 13 11 11 10 10 10 9 9 9 9 8 7 6 5 5 6 8 9 9 11 14 15 16 17 18 18 19 20 18
23 26 28 26 24 24 22 21 19 20 20 17 17 16 15 15 13 12 12 12 11 11 10 9 10 9 8 9 8 8 8 6 8 6 4 6 6 5 7 7 6 7 7 7 5 5 6 4 2 3 3 3 8 13 14 13 12 11 10 10 10 9 9 8 8 8 8 8 7 6 7 8 8 8 8 9 10 12 14 16 17 16 17 19 20
24 28 29 26 25 24 22 21 21 20 20 18 17 16 15 15 13 11 12 11 10 10 10 9 9 8 8 9 8 9 9 7 8 6 4 5 6 5 5 6 4 5 6 5 4 4 6 6 1 3 5 2 8 16 14 13 12 11 10 10 9 9 8 8 7 7 7 8 8 7 8 8 7 8 8 8 8 9 11 13 15 15 16 18 19
24 28 29 26 25 25 23 22 22 21 20 19 17 16 16 14 12 10 10 10 8 9 8 7 8 8 8 9 9 10 9 9 9 8 6 5 6 6 5 5 3 4 5 4 4 2 3 4 4 3 6 2 8 16 14 13 12 10 11 10 9 8 8 8 7 7 7 8 7 7 8 7 7 8 9 8 9 10 11 11 12 13 14 17 17
25 28 28 25 25 24 22 21 22 21 20 19 17 16 16 14 13 12 12 11 9 8 6 7 8 8 9 10 11 10 9 9 9 9 7 5 6 6 5 4 3 3 4 4 4 4 4 4 3 3 6 7 12 18 16 15 12 11 11 10 9 8 8 8 7 7 8 7 6 5 5 7 7 8 9 10 10 10 10 11 10 10 11 13 16
27 29 27 25 25 25 23 22 22 22 20 20 19 18 16 15 16 16 16 15 11 7 6 8 9 9 9 11 12 11 9 9 9 9 6 6 7 6 5 4 2 3 3 4 5 7 7 7 5 4 8 12 15 17 14 13 13 12 11 10 8 7 7 8 7 7 6 5 4 3 3 4 5 7 8 9 11 10 9 10 10 10 10 10 12
27 28 28 26 26 26 25 23 23 23 22 21 22 21 19 19 19 18 18 15 12 10 9 9 10 10 10 11 11 11 10 9 10 8 7 7 7 5 4 4 3 4 5 4 3 5 7 7 6 5 8 12 14 12 10 12 13 12 9 8 9 7 7 7 7 7 5 4 3 2 2 3 3 5 7 7 9 9 7 9 10 12 13 12 10
26 27 27 28 28 27 26 25 24 23 22 23 24 23 20 21 22 19 17 15 13 12 11 10 12 12 11 10 10 10 10 10 10 9 8 7 6 5 5 4 3 2 4 3 3 5 7 6 6 6 6 10 13 10 9 11 11 10 9 7 6 6 6 6 6 6 4 3 3 3 3 3 4 3 4 5 6 7 7 8 12 13 13 13 11
26 27 28 29 29 27 25 24 25 24 23 24 23 22 22 22 21 20 18 15 13 12 11 11 13 13 11 11 11 10 10 11 10 9 8 7 6 5 5 4 2 2 3 4 4 6 7 6 5 5 5 8 12 10 10 9 3 7 11 6 3 4 3 3 4 4 4 3 3 3 3 3 3 3 3 4 5 6 7 8 11 12 12 13 12
28 28 29 30 27 26 25 25 26 25 24 26 22 21 23 21 20 19 16 14 13 13 13 13 14 14 13 12 12 12 11 11 9 7 6 6 6 5 4 4 3 3 5 5 5 6 6 6 5 6 5 6 10 9 9 7 1 2 5 1 3 4 0 3 5 3 3 2 2 3 3 2 3 4 3 4 5 6 8 8 10 11 11 12 12
31 31 28 28 26 27 27 26 29 27 25 26 23 22 23 21 19 17 14 14 15 15 14 14 16 16 14 13 13 12 11 10 8 7 5 5 6 5 3 4 5 4 6 7 7 7 6 6 5 6 5 6 9 7 5 5 2 1 1 2 2 1 0 7 7 4 5 4 3 2 4 2 2 4 3 4 4 6 9 8 7 9 11 11 13
32 31 26 26 27 27 27 27 29 28 27 27 25 24 24 22 22 20 19 18 17 16 15 17 18 17 16 14 13 12 11 10 9 8 7 7 7 6 4 5 7 7 7 8 8 8 7 7 6 6 5 6 8 7 5 5 2 1 2 2 2 2 2 9 6 2 4 4 4 3 1 2 1 2 2 3 3 6 9 8 7 9 9 11 14
28 31 27 24 25 26 26 27 26 26 28 28 27 26 25 24 23 22 21 20 17 15 16 17 18 17 17 16 14 13 12 12 10 8 8 8 9 8 7 7 8 8 9 9 8 8 9 9 8 7 8 7 7 7 7 6 4 3 4 3 3 3 4 7 3 2 3 4 4 5 5 3 1 2 1 2 2 6 9 7 8 8 8 11 14
25 29 29 25 25 26 26 26 26 27 28 28 28 27 26 25 23 20 18 18 16 16 17 17 18 19 18 17 15 13 11 11 9 7 6 6 7 8 8 8 8 8 9 9 8 7 9 10 9 9 9 9 8 8 7 6 5 6 6 5 3 4 5 5 3 2 1 2 5 7 7 6 3 0 1 2 2 5 8 7 7 6 8 12 13
25 26 27 27 25 26 27 26 25 26 27 27 28 27 26 25 23 20 18 17 16 18 20 19 18 19 18 16 15 14 12 11 9 7 6 6 7 8 8 9 8 8 9 10 10 9 9 9 10 10 10 11 11 9 8 7 6 6 5 4 4 4 5 6 8 6 3 1 4 5 7 8 7 6 3 4 4 7 8 6 7 5 8 12 12
25 24 26 28 26 26 29 27 25 26 25 26 27 26 25 24 23 22 19 19 19 20 21 19 18 18 17 16 16 15 13 12 9 8 8 9 9 10 10 9 9 10 10 10 11 11 11 11 11 10 10 11 11 10 9 8 7 7 6 6 6 6 6 7 10 10 6 3 2 1 8 10 8 9 6 3 5 8 7 3 6 5 8 11 11
25 24 26 27 26 26 29 28 25 26 26 27 27 26 26 25 23 23 21 21 22 22 21 19 19 19 18 17 16 14 12 10 9 9 10 10 10 10 10 10 10 10 11 11 11 11 12 12 12 11 11 11 11 10 10 9 9 9 9 10 10 10 9 9 9 10 8 6 6 3 3 4 4 11 9 1 1 4 1 4 5 6 8 11 12
Wind_Direction
136 148 147 152 152 149 144 135 133 132 135 136 136 136 134 132 129 130 130 127 122 117 113 109 104 105 106 103 101 99 94 87 80 73 67 65 65 64 65 70 78 84 89 90 91 91 93 95 94 88 85 86 84 82 82 85 88 85 82 87 88 84 89 90 85 80 76 70 63 60 64 73 76 79 79 78 78 77 77 75 71 57 52 50 49
136 147 148 151 152 148 144 137 135 134 135 137 137 135 133 130 128 128 129 126 124 121 116 111 108 111 110 106 105 101 94 86 79 73 70 68 68 68 69 73 76 82 90 93 93 93 93 96 97 94 91 90 84 81 81 84 89 81 78 87 87 87 93 90 84 80 77 73 67 58 55 66 75 78 80 79 78 74 71 65 60 56 54 49 45
134 144 147 150 152 148 145 139 137 136 137 137 136 134 131 128 127 123 124 124 125 125 120 115 113 117 114 110 106 100 93 86 80 76 74 71 70 72 75 77 76 83 94 96 96 95 93 99 100 98 99 96 86 82 81 82 87 84 83 88 90 95 96 89 84 79 77 76 71 61 51 52 69 76 79 78 76 70 61 55 52 52 50 45 39
131 139 146 150 150 149 146 141 138 136 138 139 138 134 130 128 127 124 124 124 127 128 124 121 119 120 118 113 107 101 94 91 88 81 76 73 71 71 77 77 77 88 99 100 98 97 95 99 103 104 103 97 89 86 85 83 83 84 88 94 98 99 95 90 85 80 77 77 74 68 54 41 58 72 75 75 71 67 59 54 50 49 48 42 35
129 139 146 148 148 149 147 142 139 137 138 139 138 134 132 129 129 129 128 127 129 131 128 126 123 121 121 117 112 105 97 96 91 81 78 78 73 73 82 76 78 95 102 102 100 99 98 102 105 106 101 98 95 90 88 85 86 88 97 102 103 99 95 92 87 83 77 77 78 84 75 39 50 66 70 72 68 66 59 54 50 49 48 42 37
130 141 142 144 148 150 148 143 139 138 138 137 137 135 133 130 132 133 132 131 130 133 132 129 124 123 125 120 111 104 99 98 95 92 91 86 78 79 88 82 83 98 103 102 102 101 102 104 106 106 103 103 101 95 92 90 93 96 103 107 103 99 96 92 87 83 75 77 80 97 109 53 47 63 67 70 67 66 59 53 49 48 46 39 39
131 138 139 142 147 152 149 143 139 140 139 137 137 135 135 133 134 135 136 133 132 136 134 131 127 125 124 119 109 104 102 101 104 108 102 85 83 87 89 87 89 99 105 105 104 106 106 106 107 107 106 107 103 97 96 96 99 100 105 106 103 100 96 92 87 83 74 69 67 94 117 72 49 63 64 68 65 61 58 52 46 46 44 38 40
131 138 140 142 148 153 149 143 139 141 140 137 137 135 137 135 135 136 135 134 135 137 134 133 128 125 122 117 111 108 104 102 107 106 94 76 86 98 96 95 96 103 109 110 111 112 109 111 110 109 111 107 103 100 99 99 99 101 103 105 104 101 98 95 90 85 76 65 60 80 104 81 55 63 62 64 62 56 52 51 48 44 40 37 38
135 140 140 142 149 153 149 144 140 141 140 137 137 137 139 138 137 135 135 136 139 139 136 135 128 124 121 118 115 111 104 104 106 95 82 71 86 99 101 103 102 108 112 114 116 117 116 116 112 111 114 107 103 101 99 99 98 100 103 107 106 103 101 96 89 81 75 68 65 73 85 84 67 63 63 60 60 56 50 49 48 41 37 35 33
138 139 137 142 151 152 150 144 140 142 140 138 138 141 142 139 138 137 137 140 141 140 138 134 126 122 121 122 118 110 104 104 100 84 75 75 96 98 102 107 105 110 114 117 118 119 120 117 115 116 113 107 102 100 99 98 97 100 102 107 108 107 101 91 87 78 84 84 76 88 89 83 70 64 64 59 58 57 55 53 50 44 38 33 29
138 136 134 142 152 152 149 144 141 140 140 140 142 145 143 141 140 140 140 142 143 141 138 134 128 124 127 128 120 111 106 103 90 80 73 81 105 102 106 112 111 114 116 118 119 119 121 120 123 119 112 105 102 101 99 98 97 100 102 108 110 107 97 81 73 68 90 97 73 96 98 77 64 60 60 55 54 53 54 54 49 43 35 29 25
134 134 136 144 153 152 149 144 140 139 141 143 146 146 142 142 141 143 143 143 143 140 138 136 132 130 132 128 121 117 111 105 92 76 68 91 114 109 114 120 119 122 125 126 124 124 128 131 126 117 110 106 103 101 98 98 96 98 102 109 110 103 94 71 64 61 67 77 66 104 106 69 49 47 51 50 45 42 41 42 39 33 28 23 19
129 133 138 144 151 151 150 143 139 139 142 146 147 145 142 144 143 145 146 143 143 141 143 140 137 136 135 132 132 134 123 111 101 77 69 107 122 113 123 129 128 128 131 131 130 133 135 135 125 116 109 105 102 99 98 96 95 97 101 107 111 102 85 54 59 60 52 57 60 106 119 58 41 38 37 35 29 25 20 22 23 21 19 14 7
122 127 133 141 148 149 149 141 139 141 145 149 147 145 144 147 146 147 148 147 146 145 146 143 141 141 143 144 147 152 148 146 140 50 65 118 125 109 125 136 133 130 134 136 137 141 141 138 127 116 106 104 100 97 96 92 93 93 97 100 100 82 44 24 4 347 39 67 65 94 105 62 44 34 23 11 9 7 0 0 3 5 7 3 358
122 126 129 136 145 146 146 141 140 145 149 151 148 147 147 149 148 149 152 149 149 147 146 147 146 146 154 160 171 187 195 201 189 160 92 130 130 110 120 137 139 135 139 143 147 150 146 142 130 119 105 103 99 98 94 89 89 83 88 79 72 59 19 6 360 1 47 65 67 82 80 58 43 27 14 358 358 354 351 355 358 360 357 352 351
127 129 130 135 143 144 144 142 143 147 150 151 151 150 149 150 151 152 152 152 150 148 148 152 151 151 165 181 203 205 194 183 160 145 138 142 135 123 119 129 143 141 142 150 157 154 148 146 136 125 114 107 102 100 95 89 83 72 68 54 52 43 13 3 12 20 37 55 68 76 59 45 32 15 2 353 353 347 347 355 358 359 348 342 343
129 131 133 139 143 143 142 144 146 148 151 152 153 151 151 152 154 154 152 153 151 151 156 156 154 159 176 188 188 182 176 168 156 147 149 152 141 135 129 121 136 144 148 156 161 154 150 150 142 134 126 118 111 103 98 87 73 58 44 41 40 38 37 25 22 22 34 57 68 68 45 32 19 1 354 350 349 346 343 349 353 354 346 340 339
134 134 136 142 145 145 144 149 149 149 153 154 155 152 153 156 157 156 155 157 157 161 163 158 160 166 169 167 157 140 144 150 150 149 148 151 147 143 142 129 127 134 144 154 159 159 162 159 154 152 147 139 130 116 101 78 56 40 29 27 24 37 40 21 25 36 60 72 67 51 36 23 10 358 355 351 348 345 339 341 347 351 347 341 339
137 137 138 143 146 147 146 151 152 153 155 154 155 153 156 160 159 158 161 163 166 169 166 161 162 163 159 146 123 101 94 107 129 146 150 149 149 151 152 147 134 128 138 153 165 172 177 173 176 174 174 177 163 160 133 84 32 17 1 11 17 30 18 14 36 66 68 70 57 43 34 17 7 4 1 357 355 352 348 346 350 352 348 343 341
138 139 140 146 149 147 147 152 155 157 156 154 155 157 161 162 161 163 166 168 172 173 165 161 158 159 153 136 123 103 91 98 107 121 146 153 154 155 160 162 150 140 136 148 170 183 193 192 195 198 199 203 201 209 208 241 268 286 305 342 355 5 6 11 46 69 62 56 49 44 31 18 11 9 6 7 7 7 7 3 1 358 351 348 347
144 141 141 149 151 147 147 153 159 160 155 155 157 160 164 164 165 166 168 170 173 170 161 158 160 158 142 140 136 111 95 98 98 99 121 148 159 158 162 170 161 157 143 138 160 182 203 209 212 219 222 224 224 230 237 249 266 283 305 332 340 358 357 4 59 71 63 48 46 43 29 19 15 14 14 15 18 19 18 16 13 6 1 359 357
148 139 144 152 151 147 149 156 160 160 157 157 157 163 165 165 167 167 170 172 170 167 163 158 152 147 139 143 141 138 142 113 108 122 98 108 150 163 165 173 168 167 159 143 146 164 195 207 218 226 231 240 241 245 254 258 272 294 332 343 342 357 349 29 72 77 66 53 52 47 35 29 26 24 24 24 24 22 22 23 19 12 13 13 11
147 135 146 149 147 147 150 158 162 162 161 160 159 165 165 165 170 171 174 172 168 163 162 156 142 142 146 147 138 161 181 150 137 162 154 110 120 149 154 163 170 174 173 160 157 158 167 174 190 209 228 245 248 251 255 259 279 316 356 340 344 359 2 83 85 91 75 66 65 54 47 46 40 35 32 33 31 28 28 29 27 25 28 27 25
147 134 145 143 145 151 152 158 165 164 163 162 162 167 166 166 171 173 176 173 165 155 155 163 161 160 162 164 159 182 185 165 161 170 177 147 124 135 135 143 158 164 169 167 168 169 176 180 166 176 211 229 240 246 239 248 269 306 346 343 86 102 87 103 104 90 76 73 68 55 50 55 56 50 44 45 41 38 39 38 38 37 38 35 32
140 135 146 147 149 154 155 160 167 164 164 166 165 169 168 168 171 173 176 172 162 157 165 176 180 184 183 181 180 193 198 183 174 173 180 171 154 149 137 143 146 150 164 160 165 182 190 197 200 199 213 236 254 257 245 238 235 226 89 46 129 110 99 110 110 76 70 68 58 42 42 51 63 64 58 55 47 43 44 41 43 44 42 39 34
140 141 148 152 155 157 158 163 168 165 168 171 170 171 171 172 173 172 173 172 164 165 178 183 186 190 187 186 184 195 204 189 179 185 193 189 183 180 175 175 162 172 193 179 189 220 216 220 244 242 251 256 263 256 218 170 146 153 110 94 63 111 118 121 114 78 66 60 49 38 38 42 49 64 61 57 51 49 50 43 44 48 45 41 35
151 149 149 155 160 163 162 165 169 168 171 174 171 171 173 176 175 172 174 178 174 174 182 186 192 193 187 187 185 191 202 196 187 192 199 200 197 194 196 200 190 191 203 201 202 216 213 221 226 206 210 215 250 253 165 129 101 97 73 110 145 110 120 125 114 83 66 56 52 44 41 41 35 41 42 42 42 44 51 43 41 43 41 38 33
161 153 152 160 162 166 167 168 171 169 173 175 173 174 175 177 175 173 176 180 175 177 184 187 195 193 186 187 188 192 199 199 193 191 194 193 188 183 202 205 187 184 195 202 199 205 204 216 202 175 202 173 157 35 132 115 86 71 55 118 152 120 124 127 116 95 73 62 58 51 44 42 34 30 30 32 34 31 32 28 22 23 27 24 18
159 153 154 161 163 168 170 171 173 172 176 176 176 178 175 175 173 173 177 178 175 180 185 184 188 188 186 186 191 198 198 193 189 187 185 179 177 175 194 193 159 160 176 177 170 184 163 136 182 46 358 146 137 82 42 52 72 71 64 95 103 103 114 119 125 118 79 66 62 54 44 37 31 27 25 27 29 30 28 26 25 22 18 12 6
148 153 157 160 164 169 171 173 173 175 178 176 178 177 174 173 172 176 178 177 179 185 184 182 185 186 188 188 191 199 189 186 184 167 168 174 169 160 164 165 154 148 157 164 125 136 115 106 138 103 88 125 129 134 112 91 94 83 84 87 82 86 84 85 113 130 81 65 61 58 47 33 28 24 22 20 17 20 23 23 26 26 23 21 19
147 155 160 161 165 169 173 175 174 176 179 178 179 176 175 173 174 179 179 178 181 181 181 183 186 187 191 189 188 185 165 178 179 162 168 173 166 160 160 156 155 151 149 151 112 120 109 91 92 76 80 83 105 122 117 117 111 96 89 86 84 85 80 72 83 101 86 69 62 61 50 34 27 21 18 15 12 13 16 19 20 21 21 20 24
157 159 160 160 163 169 173 175 178 180 180 180 179 177 177 177 179 180 178 183 183 176 180 183 185 189 188 183 175 163 160 181 171 161 170 172 169 162 157 150 146 148 143 140 126 125 113 93 81 72 75 66 76 95 101 100 89 88 90 86 87 84 83 79 75 80 83 80 68 55 47 38 29 22 19 14 13 16 18 22 23 23 22 21 26
163 160 158 158 160 166 172 176 182 182 181 181 179 177 178 179 180 178 178 184 180 175 181 180 182 188 183 177 167 160 173 183 161 153 163 161 156 147 145 146 142 140 133 127 122 118 112 110 109 101 105 95 86 96 109 106 91 84 82 82 87 85 82 78 72 72 74 79 73 59 50 44 34 26 19 11 12 20 25 30 30 27 25 23 29
162 157 155 157 160 163 172 180 182 180 184 185 179 177 177 178 177 175 179 180 177 178 183 178 178 185 179 167 159 166 181 178 155 149 158 148 142 146 143 135 130 131 132 122 108 107 106 103 110 111 121 118 113 113 105 98 92 84 77 78 82 82 83 78 72 67 64 69 69 64 56 47 42 34 22 10 9 16 26 34 31 26 23 23 31
159 156 154 156 159 162 173 181 180 178 185 185 178 178 175 175 174 174 178 177 176 181 181 175 171 175 172 163 158 171 183 168 144 143 159 147 140 146 133 124 122 120 126 118 108 116 113 100 103 107 118 136 128 110 104 96 89 86 83 82 79 79 83 81 78 75 68 65 55 48 45 41 43 43 35 20 13 12 18 27 26 20 17 18 27
159 155 154 156 159 164 174 179 178 178 184 184 176 177 174 171 172 174 178 176 179 183 176 170 171 171 169 170 166 169 173 154 140 145 158 146 138 134 117 115 117 115 126 126 124 126 119 119 143 121 111 154 132 110 106 102 92 91 90 88 86 84 83 79 77 75 76 72 59 49 50 50 45 43 44 36 28 21 16 17 17 17 10 9 19
161 155 155 158 160 167 175 178 179 179 182 181 174 176 173 170 172 171 175 176 180 185 177 169 174 173 171 172 165 161 158 148 146 141 135 138 137 134 121 119 118 123 128 118 113 110 107 104 83 152 132 126 122 110 106 106 100 99 98 92 90 87 85 81 76 75 79 72 60 49 46 52 56 48 41 39 39 36 29 18 11 12 5 0 11
163 156 157 160 162 169 176 177 178 179 180 177 172 172 169 167 169 166 169 170 181 194 184 168 169 168 166 162 157 158 152 148 150 134 123 141 147 141 133 129 123 128 119 84 95 143 157 98 37 154 145 89 119 117 111 111 107 107 104 98 95 94 90 85 82 79 75 69 61 47 33 31 45 51 45 38 39 38 35 30 18 9 1 357 6
161 157 159 161 163 170 177 177 177 178 178 174 169 166 165 165 163 164 167 168 184 201 188 166 164 163 162 157 155 157 149 145 143 127 123 146 150 140 134 129 108 120 109 54 81 116 162 131 58 116 113 86 121 126 122 120 114 110 108 101 98 101 100 90 85 79 70 67 64 60 44 20 15 25 31 32 36 35 28 28 24 14 6 1 5
160 160 161 163 165 172 177 177 177 177 174 170 165 162 162 163 165 173 175 171 177 182 178 176 168 158 157 155 154 154 149 143 130 122 133 154 149 139 143 137 92 119 116 36 71 98 112 127 107 107 102 95 115 124 128 131 120 113 109 102 98 95 101 99 93 88 77 75 73 83 84 47 18 3 4 15 23 29 24 20 19 17 17 15 11
160 163 164 166 170 175 176 175 178 178 172 167 166 163 164 167 171 176 175 170 169 167 171 178 170 162 158 153 152 150 145 137 125 129 147 151 146 138 145 147 101 121 132 80 78 101 102 120 117 116 118 108 114 123 136 138 125 118 109 100 98 86 87 94 95 95 84 81 76 70 98 101 70 10 354 0 9 19 20 10 12 17 20 23 18
162 166 167 171 175 176 175 174 177 176 171 169 169 169 169 174 176 172 169 169 168 168 169 166 162 163 159 148 147 143 133 129 128 138 145 139 140 133 132 141 93 91 156 123 88 102 102 113 118 123 132 129 134 143 152 144 136 144 142 119 103 93 87 85 88 95 90 88 74 47 46 69 73 40 11 7 2 8 3 352 359 6 9 14 12
166 171 174 178 177 175 174 174 174 172 173 173 172 174 174 177 177 168 165 168 168 168 166 156 152 152 147 142 142 137 133 136 138 140 139 130 131 125 120 130 96 65 155 150 108 109 118 124 133 144 149 143 145 157 170 166 170 167 156 146 140 126 102 97 101 107 109 105 92 61 38 29 32 24 15 6 352 353 348 333 342 351 352 356 357
170 179 182 180 174 173 174 173 172 171 174 176 174 176 177 176 172 165 163 165 162 162 158 149 145 141 139 139 138 137 140 142 140 137 136 131 123 120 130 149 149 109 114 132 128 122 130 131 137 149 161 158 147 152 173 179 236 173 162 199 166 150 159 159 148 144 146 127 109 76 48 40 5 6 7 1 356 350 347 332 331 344 343 342 346
178 186 184 177 173 174 174 173 172 170 171 176 175 173 174 172 166 162 162 158 155 156 155 151 147 141 139 139 137 137 137 134 133 129 128 136 129 125 150 162 160 140 128 140 136 127 132 134 137 146 158 163 150 148 168 172 177 149 26 347 154 163 143 152 149 166 192 177 150 115 35 46 333 347 347 354 356 339 351 354 335 337 338 336 338
186 189 182 175 175 174 172 172 172 169 169 174 173 170 170 171 167 165 165 159 155 161 163 159 153 149 146 145 143 145 144 141 145 145 135 136 138 141 156 156 154 144 135 137 129 122 123 122 131 136 122 123 135 146 162 164 163 109 38 46 89 9 103 155 158 161 186 177 160 172 89 76 341 330 310 331 346 325 344 4 348 333 334 335 334
189 188 182 175 173 172 168 167 168 168 171 173 171 169 170 172 171 170 169 163 159 167 169 163 156 152 150 149 149 151 151 151 152 155 154 153 155 163 167 155 151 143 132 129 129 134 132 123 126 129 119 115 128 143 149 150 137 96 63 72 84 47 96 144 157 117 163 197 201 195 181 165 37 73 88 318 315 311 323 345 346 332 330 333 332
186 185 182 174 170 168 163 162 164 165 169 172 172 172 171 173 174 172 170 166 163 165 166 162 156 153 150 148 148 145 147 153 153 154 166 174 171 170 164 147 138 136 134 133 131 138 141 133 129 131 128 123 122 126 127 125 116 98 76 73 82 69 78 79 41 42 139 184 203 203 201 219 253 208 45 356 308 291 293 312 333 328 329 333 333
184 182 177 174 170 165 163 162 163 165 168 172 174 175 173 175 176 174 169 168 165 164 163 159 156 155 151 149 149 144 140 142 144 142 137 141 145 143 139 133 131 134 139 138 132 130 135 136 133 134 132 123 116 114 110 101 94 92 82 72 79 80 75 55 38 26 20 97 188 190 190 211 228 229 273 359 340 288 271 295 324 324 332 336 339
184 180 174 175 172 165 165 164 163 168 171 173 175 176 176 176 176 175 171 167 166 165 164 161 159 158 153 153 154 149 144 142 142 141 132 131 136 136 136 137 143 143 136 135 134 131 129 132 132 132 133 127 120 115 109 103 94 85 76 72 67 58 57 46 32 21 9 5 348 161 179 197 204 204 225 2 345 283 265 305 334 331 338 342 344
179 179 175 178 175 167 166 167 168 172 174 176 178 179 179 177 177 176 172 168 168 168 169 167 165 161 157 158 153 143 144 148 150 146 139 138 139 140 143 145 147 140 130 128 130 130 126 126 128 127 128 125 119 114 110 105 98 88 79 75 69 58 57 50 32 19 11 7 350 328 222 231 193 182 193 48 2 256 308 15 352 353 351 350 347